Date String (YYYY-MM-DD hh:mm:ss) UTC,Instrument flags,absolute air pressure of the measurement (hPa),sample flow rate (lpm),inlet stack bypass flow (lpm),air temperature of the measurement (°C),ambient temperature measured by the external sensor (°C),aerosol sample conditioner tube jacket temperature (°C),OPC LED temperature (°C),internal box temperature (°C),relative humidity of the measurement (%),span deviation,mass concentration of particles derived from Lorenz-Mie calculation of OPC scattering (μg/m³),mass concentration of particles derived from Lorenz-Mie calculation of OPC scattering (μg/m³),mass concentration of particles derived from Lorenz-Mie calculation of OPC scattering (μg/m³)
DateTimeUTC,F1_M11,P_M11,Q1_M11,Q2_M11,T1_M11,T2_M11,T3_M11,T4_M11,T5_M11,U1_M11,ZSPAN_M11,X0_M11,X2_M11,X1_M11
2024-04-17 04:00:00,SystemResetWarning,0825.4,5.00,000.00,026.4,025.6,000.0,034.8,028.2,012.3,0000.0,0006.40,0003.03,0001.95
2024-04-17 04:01:00,SystemResetWarning,0825.4,5.01,000.00,026.4,025.6,000.0,034.8,028.3,012.3,0000.0,0006.32,0003.04,0001.95
2024-04-17 04:02:00,SystemResetWarning,0825.4,5.00,000.00,026.4,025.6,000.0,034.8,028.3,012.3,0000.0,0005.95,0003.04,0001.95
2024-04-17 04:03:00,SystemResetWarning,0825.4,5.00,000.00,026.4,025.7,000.0,034.8,028.3,012.3,0000.0,0005.78,0003.03,0001.93
2024-04-17 04:04:00,SystemResetWarning,0825.5,5.00,000.00,026.4,025.7,000.0,034.8,028.3,012.3,0000.0,0005.98,0003.05,0001.94
2024-04-17 04:05:00,SystemResetWarning,0825.5,5.00,000.00,026.4,025.7,000.0,034.8,028.3,012.2,0000.0,0005.85,0002.98,0001.93
2024-04-17 04:06:00,SystemResetWarning,0825.5,5.00,000.00,026.4,025.7,000.0,034.8,028.3,012.2,0000.0,0007.03,0002.98,0001.93
2024-04-17 04:07:00,SystemResetWarning,0825.5,4.99,000.00,026.4,025.7,000.0,034.8,028.3,012.2,0000.0,0007.00,0002.97,0001.94
2024-04-17 04:08:00,SystemResetWarning,0825.5,5.00,000.00,026.5,025.7,000.0,034.8,028.3,012.1,0000.0,0006.44,0002.96,0001.94
2024-04-17 04:09:00,SystemResetWarning,0825.4,5.00,000.00,026.5,025.8,000.0,034.9,028.3,012.1,0000.0,0007.07,0002.97,0001.93
2024-04-17 04:10:00,SystemResetWarning,0825.4,4.99,000.00,026.5,025.8,000.0,034.9,028.4,012.1,0000.0,0007.14,0002.97,0001.93
2024-04-17 04:11:00,SystemResetWarning,0825.5,5.01,000.00,026.5,025.8,000.0,034.9,028.4,012.1,0000.0,0007.16,0002.90,0001.91
2024-04-17 04:12:00,SystemResetWarning,0825.4,5.01,000.00,026.5,025.8,000.0,034.9,028.4,012.0,0000.0,0007.28,0002.85,0001.89
2024-04-17 04:13:00,SystemResetWarning,0825.5,4.98,000.00,026.5,025.8,000.0,034.9,028.4,012.0,0000.0,0007.18,0002.81,0001.89
2024-04-17 04:14:00,SystemResetWarning,0825.5,5.00,000.00,026.5,025.8,000.0,034.9,028.3,012.0,0000.0,0007.12,0002.76,0001.88
2024-04-17 04:15:00,SystemResetWarning,0825.5,5.01,000.00,026.5,025.8,000.0,034.9,028.3,012.0,0000.0,0006.92,0002.72,0001.85
2024-04-17 04:16:00,SystemResetWarning,0825.4,5.01,000.00,026.5,025.8,000.0,034.9,028.3,012.0,0000.0,0006.97,0002.75,0001.86
2024-04-17 04:17:00,SystemResetWarning,0825.4,5.00,000.00,026.5,025.7,000.0,034.9,028.3,012.0,0000.0,0006.31,0002.77,0001.87
2024-04-17 04:18:00,SystemResetWarning,0825.4,5.00,000.00,026.5,025.7,000.0,034.9,028.3,012.0,0000.0,0005.78,0002.74,0001.87
2024-04-17 04:19:00,SystemResetWarning,0825.5,5.00,000.00,026.5,025.7,000.0,034.9,028.3,012.0,0000.0,0005.91,0002.76,0001.87
2024-04-17 04:20:00,SystemResetWarning,0825.5,4.99,000.00,026.5,025.7,000.0,034.9,028.3,012.1,0000.0,0005.34,0002.78,0001.87
2024-04-17 04:21:00,SystemResetWarning,0825.6,4.99,000.00,026.5,025.7,000.0,035.0,028.3,012.1,0000.0,0005.44,0002.83,0001.87
2024-04-17 04:22:00,SystemResetWarning,0825.6,5.02,000.00,026.5,025.6,000.0,035.0,028.3,012.3,0000.0,0005.46,0002.87,0001.87
2024-04-17 04:23:00,SystemResetWarning,0825.6,5.00,000.00,026.5,025.6,000.0,035.0,028.3,012.5,0000.0,0005.26,0002.86,0001.88
2024-04-17 04:24:00,SystemResetWarning,0825.6,4.99,000.00,026.5,025.6,000.0,035.0,028.3,012.6,0000.0,0005.35,0002.86,0001.88
2024-04-17 04:25:00,SystemResetWarning,0825.6,5.00,000.00,026.5,025.7,000.0,035.0,028.3,012.5,0000.0,0005.55,0002.91,0001.89
2024-04-17 04:26:00,SystemResetWarning,0825.5,5.00,000.00,026.5,025.7,000.0,035.0,028.3,012.5,0000.0,0005.88,0002.93,0001.90
2024-04-17 04:27:00,SystemResetWarning,0825.5,5.00,000.00,026.5,025.7,000.0,035.0,028.3,012.3,0000.0,0006.16,0002.98,0001.91
2024-04-17 04:28:00,SystemResetWarning,0825.6,5.00,000.00,026.5,025.7,000.0,035.0,028.3,012.3,0000.0,0006.12,0002.94,0001.90
2024-04-17 04:29:00,SystemResetWarning,0825.6,5.01,000.00,026.5,025.7,000.0,035.0,028.3,012.3,0000.0,0006.46,0002.92,0001.90
2024-04-17 04:30:00,SystemResetWarning,0825.5,5.01,000.00,026.5,025.6,000.0,035.0,028.3,012.3,0000.0,0006.43,0002.93,0001.89
2024-04-17 04:31:00,SystemResetWarning,0825.5,5.01,000.00,026.5,025.7,000.0,035.0,028.3,012.2,0000.0,0006.43,0002.91,0001.89
2024-04-17 04:32:00,SystemResetWarning,0825.6,5.00,000.00,026.5,025.7,000.0,035.0,028.3,012.2,0000.0,0006.25,0002.82,0001.89
2024-04-17 04:33:00,SystemResetWarning,0825.6,5.00,000.00,026.5,025.7,000.0,035.0,028.3,012.2,0000.0,0006.21,0002.84,0001.90
2024-04-17 04:34:00,SystemResetWarning,0825.5,4.99,000.00,026.5,025.7,000.0,035.0,028.4,012.2,0000.0,0006.14,0002.83,0001.89
2024-04-17 04:35:00,SystemResetWarning,0825.5,5.00,000.00,026.5,025.8,000.0,035.0,028.4,012.1,0000.0,0006.14,0002.80,0001.88
2024-04-17 04:36:00,SystemResetWarning,0825.5,5.00,000.00,026.5,025.8,000.0,035.0,028.4,012.1,0000.0,0006.31,0002.78,0001.87
2024-04-17 04:37:00,SystemResetWarning,0825.5,5.00,000.00,026.5,025.8,000.0,035.0,028.4,012.1,0000.0,0006.11,0002.82,0001.87
2024-04-17 04:38:00,SystemResetWarning,0825.6,5.01,000.00,026.5,025.8,000.0,035.0,028.4,012.0,0000.0,0006.16,0002.86,0001.85
2024-04-17 04:39:00,SystemResetWarning,0825.5,5.00,000.00,026.5,025.8,000.0,035.0,028.4,012.0,0000.0,0006.28,0002.87,0001.85
2024-04-17 04:40:00,SystemResetWarning,0825.5,5.00,000.00,026.5,025.8,000.0,035.0,028.4,012.0,0000.0,0005.64,0002.85,0001.84
2024-04-17 04:41:00,SystemResetWarning,0825.5,4.99,000.00,026.6,025.9,000.0,035.0,028.4,012.0,0000.0,0007.32,0002.86,0001.84
2024-04-17 04:42:00,SystemResetWarning,0825.4,4.99,000.00,026.6,025.9,000.0,035.0,028.4,012.0,0000.0,0007.53,0002.86,0001.84
2024-04-17 04:43:00,SystemResetWarning,0825.5,5.00,000.00,026.6,025.6,000.0,035.0,028.2,012.0,0000.0,0007.48,0002.88,0001.84
2024-04-17 04:44:00,SystemResetWarning,0825.4,5.00,000.00,026.2,023.3,000.0,035.1,027.0,012.1,0000.0,0007.46,0002.87,0001.85
2024-04-17 04:45:00,SystemResetWarning,0825.4,5.02,000.00,025.7,022.2,000.0,035.0,026.2,012.4,0000.0,0007.47,0002.90,0001.86
2024-04-17 04:46:00,SystemResetWarning,0825.4,5.00,000.00,025.5,022.4,000.0,034.8,026.3,012.6,0000.0,0007.45,0002.91,0001.87
2024-04-17 04:47:00,SystemResetWarning,0825.4,5.00,000.00,025.5,022.7,000.0,034.7,026.6,012.6,0000.0,0007.28,0002.94,0001.89
2024-04-17 04:48:00,SystemResetWarning,0825.4,5.00,000.00,025.5,023.1,000.0,034.5,026.9,012.6,0000.0,0007.12,0002.87,0001.88
2024-04-17 04:49:00,SystemResetWarning,0825.3,5.00,000.00,025.5,023.4,000.0,034.5,027.0,012.7,0000.0,0006.82,0002.80,0001.88
2024-04-17 04:50:00,SystemResetWarning,0825.3,5.00,000.00,025.5,023.7,000.0,034.4,027.2,012.7,0000.0,0006.62,0002.78,0001.89
2024-04-17 04:51:00,SystemResetWarning,0825.3,4.99,000.00,025.5,024.0,000.0,034.3,027.3,012.6,0000.0,0006.50,0002.76,0001.88
2024-04-17 04:52:00,SystemResetWarning,0825.4,5.00,000.00,025.5,024.2,000.0,034.3,027.3,012.6,0000.0,0005.28,0002.76,0001.88
2024-04-17 04:53:00,SystemResetWarning,0825.4,5.01,000.00,025.6,024.4,000.0,034.3,027.4,012.6,0000.0,0004.59,0002.78,0001.87
2024-04-17 04:54:00,SystemResetWarning,0825.4,5.00,000.00,025.6,024.5,000.0,034.3,027.5,012.6,0000.0,0005.87,0002.82,0001.88
2024-04-17 04:55:00,SystemResetWarning,0825.4,5.00,000.00,025.6,024.6,000.0,034.2,027.5,012.6,0000.0,0005.97,0002.80,0001.86
2024-04-17 04:56:00,SystemResetWarning,0825.4,4.99,000.00,025.7,024.8,000.0,034.2,027.6,012.6,0000.0,0006.11,0002.79,0001.85
2024-04-17 04:57:00,SystemResetWarning,0825.4,4.99,000.00,025.7,024.9,000.0,034.2,027.6,012.5,0000.0,0006.11,0002.78,0001.84
2024-04-17 04:58:00,SystemResetWarning,0825.4,5.00,000.00,025.7,024.9,000.0,034.2,027.6,012.5,0000.0,0006.07,0002.75,0001.83
2024-04-17 04:59:00,SystemResetWarning,0825.5,5.00,000.00,025.7,025.0,000.0,034.2,027.7,012.5,0000.0,0006.09,0002.76,0001.82
